Location: Observatory
(52.1446°N, 0.4624°W)
Time: 11:19:03
(UTC+01:00)

ISS - Pass Details

Date: 05 July 2020
Orbit: 417 x 420 km, 51.6° (Epoch: 02 July)

Event Time Altitude Azimuth Distance (km) Brightness Sun altitude
Exits shadow 03:09:37 16° 211° (SSW) 1,165 -2.2 -10.4°
Maximum altitude 03:11:46 34° 153° (SSE) 715 -2.9 -10.3°
Drops below altitude 10° 03:14:50 10° 87° (E) 1,498 -0.5 -10.0°
Sets 03:17:03 0° 78° (ENE) 2,363 0.7 -9.9°
